[[{"header":{"parameterUnit":"m.s-1","parameterCategory":1,"la1":30.2991,"la2":30.254,"lo1":-89.0895,"lo2":-89.0444,"dy":0.0017,"dx":0.0017,"nx":28,"ny":28,"refTime":"2023-10-05T03:00:00:Z","depth":0,"parameterNumber":2,"parameterNumberName":"U-component_of_WINDS"},"data":[0,0,0,0,0,0,0,0,0,0,0,0,0,0,0,0,0,0,0,0,0,0,0,0,0,0,0,0,0,0,0,0,0,0,0,0,0,0,0,0,0,0,0,0,0,0,0,0,0,0,0,0,0,0,0,0,0,0,-1.229,-1.2292,0,-1.2411,-1.2412,-1.2414,-1.2446,-1.2445,-1.2444,-1.2444,-1.2571,-1.2575,-1.2579,0,0,0,0,0,0,0,0,0,0,0,0,0,-1.2094,-1.2097,-1.229,-1.2292,-1.2293,-1.2411,-1.2412,-1.2414,-1.2446,-1.2445,-1.2444,-1.2443,-1.257,-1.2575,-1.258,0,0,0,0,0,0,0,0,0,0,0,0,0,-1.2193,-1.2098,-1.229,-1.2323,-1.2328,-1.241,-1.2412,-1.2414,-1.2446,-1.2445,-1.2444,-1.2443,-1.2568,-1.2574,-1.258,-1.264,0,0,-1.2599,-1.2602,0,0,0,0,0,0,0,0,-1.2188,-1.22,-1.2317,-1.2321,-1.2326,-1.2412,-1.239,-1.249,-1.2446,-1.2401,-1.2444,-1.2442,-1.2519,-1.253,-1.2555,-1.2646,-1.2651,-1.2599,-1.2603,-1.2606,-1.2608,0,0,0,0,0,0,0,-1.2181,-1.2195,-1.2338,-1.2319,-1.2324,-1.2334,-1.2347,-1.2409,-1.2465,-1.2405,-1.2408,-1.2421,-1.2522,-1.2549,-1.2558,-1.2653,-1.2599,-1.2605,-1.2608,-1.2611,-1.2804,-1.2805,0,0,0,0,0,0,-1.2167,-1.2189,-1.2334,-1.2342,-1.2253,-1.2339,-1.2353,-1.2386,-1.2464,-1.2475,-1.2422,-1.2422,-1.2539,-1.2551,-1.2562,-1.264,-1.2606,-1.2611,-1.2615,-1.2802,-1.2804,-1.2806,0,0,0,0,0,0,-1.2163,-1.218,-1.2329,-1.2266,-1.2286,-1.2343,-1.238,-1.2389,-1.2415,-1.2477,-1.2488,-1.2439,-1.2538,-1.2554,-1.2621,-1.2644,-1.2614,-1.262,-1.2801,-1.2803,-1.2805,-1.2793,0,0,0,0,0,0,-1.2157,-1.2178,-1.2199,-1.2267,-1.2289,-1.2384,-1.2381,-1.2392,-1.2425,-1.2427,-1.2496,-1.2506,-1.2539,-1.2612,-1.2627,-1.2652,-1.2625,-1.2799,-1.2802,-1.2804,-1.2791,-1.2794,-1.2797,0,0,0,0,0,-1.215,-1.2191,-1.22,-1.2218,-1.2317,-1.2385,-1.2398,-1.2433,-1.2427,-1.245,-1.2491,-1.2504,-1.2639,-1.2618,-1.2636,-1.2663,-1.2797,-1.2801,-1.2804,-1.279,-1.2793,-1.2796,0,0,0,0,0,0,-1.2126,-1.2201,-1.2211,-1.2275,-1.2324,-1.239,-1.242,-1.2436,-1.2487,-1.2487,-1.253,-1.2545,-1.261,-1.2644,-1.2618,-1.2727,-1.2719,-1.2726,-1.2702,-1.2706,-1.2709,-1.2699,-1.263,0,0,0,0,0,-1.2128,-1.2175,-1.2239,-1.2289,-1.2313,-1.2362,-1.2393,-1.2416,-1.2468,-1.2489,-1.2534,-1.2586,-1.2641,-1.2675,-1.2729,-1.2797,-1.2814,-1.2825,-1.2827,-1.2829,-1.2835,-1.2877,-1.2883,-1.2816,-1.2816,-1.2816,0,0,-1.2132,-1.2179,-1.2206,-1.2285,-1.2325,-1.2375,-1.2379,-1.2431,-1.2469,-1.2498,-1.2563,-1.2599,-1.266,-1.2728,-1.2761,-1.2758,-1.2858,-1.2834,-1.2835,-1.2839,-1.2881,-1.2887,-1.2893,-1.2819,-1.2818,-1.2818,0,0,-1.2166,-1.2206,-1.2253,-1.2294,-1.2354,-1.2388,-1.2399,-1.2465,-1.2489,-1.2556,-1.2579,-1.2627,-1.2719,-1.2762,-1.2796,-1.2851,-1.2867,-1.2868,-1.2882,-1.2922,-1.2927,-1.2932,-1.2954,-1.2961,-1.2873,-1.2873,-1.2873,0,-1.2165,-1.2239,-1.2276,-1.2328,-1.2363,-1.2391,-1.2441,-1.2479,-1.2554,-1.2579,-1.2576,-1.2694,-1.2737,-1.2817,-1.2831,-1.2857,-1.2874,-1.2859,-1.2923,-1.2929,-1.2934,-1.2955,-1.2962,-1.2873,-1.2873,-1.2873,-1.2873,0,-1.2235,-1.2287,-1.2318,-1.239,-1.2429,-1.248,-1.2527,-1.2562,-1.2584,-1.2618,-1.2688,-1.2741,-1.2807,-1.2828,-1.2849,-1.2913,-1.291,-1.2914,-1.2907,-1.2939,-1.296,-1.2968,-1.2873,-1.2873,-1.2873,-1.2873,0,0,-1.2254,-1.2348,-1.2359,-1.2394,-1.2464,-1.2506,-1.256,-1.2624,-1.2655,-1.2707,-1.2755,-1.2834,-1.2839,-1.2878,-1.2905,-1.294,-1.2983,-1.2941,-1.2943,-1.2948,-1.306,-1.3056,-1.3065,-1.2995,-1.2996,-1.2998,-1.3056,0,-1.2298,-1.2392,-1.2429,-1.2507,-1.2557,-1.2587,-1.2634,-1.2684,-1.2719,-1.2769,-1.2808,-1.2864,-1.2866,-1.289,-1.2927,-1.297,-1.3007,-1.2967,-1.3042,-1.3044,-1.3025,-1.3075,-1.3071,-1.3123,-1.3064,-1.3065,-1.3066,0,-1.236,-1.2413,-1.2496,-1.2564,-1.2586,-1.2627,-1.2691,-1.2737,-1.2796,-1.282,-1.2864,-1.289,-1.2951,-1.294,-1.3026,-1.2998,-1.3032,-1.3059,-1.3062,-1.307,-1.3056,-1.3086,-1.314,-1.3148,-1.3079,-1.3078,-1.3077,0,-1.2367,-1.2459,-1.2522,-1.255,-1.263,-1.2659,-1.2694,-1.2752,-1.279,-1.2846,-1.2871,-1.2934,-1.2969,-1.3019,-1.3062,-1.305,-1.3146,-1.3138,-1.3169,-1.3168,-1.3186,-1.3184,-1.3247,-1.3208,-1.3207,-1.3207,-1.3207,0,-1.2411,-1.2461,-1.2526,-1.2564,-1.2622,-1.2666,-1.2723,-1.2761,-1.2813,-1.2861,-1.2891,-1.2936,-1.2991,-1.3044,-1.3079,-1.3146,-1.3162,-1.3184,-1.3193,-1.3181,-1.3179,-1.3203,-1.3201,-1.3209,-1.3209,-1.3209,-1.3208,0,-1.2428,-1.2473,-1.2543,-1.2615,-1.2634,-1.2674,-1.2736,-1.2776,-1.2814,-1.2875,-1.2892,-1.2951,-1.3016,-1.3065,-1.3148,-1.3172,-1.3244,-1.3253,-1.3224,-1.3228,-1.3256,-1.3253,-1.3337,-1.3351,-1.3302,-1.3302,-1.3302,0,-1.2453,-1.2492,-1.2568,-1.2602,-1.2637,-1.2691,-1.273,-1.2776,-1.2815,-1.2888,-1.292,-1.2986,-1.3042,-1.3144,-1.3197,-1.3263,-1.3274,-1.3299,-1.3284,-1.3272,-1.3276,-1.3273,-1.3278,-1.33,-1.3301,-1.3301,-1.3301,0,-1.2493,-1.2515,-1.2568,-1.263,-1.2675,-1.2727,-1.2779,-1.2806,-1.2862,-1.2906,-1.2971,-1.3015,-1.3101,-1.3168,-1.324,-1.3279,-1.3301,-1.3306,-1.3317,-1.3305,-1.3287,-1.3298,-1.323,-1.3303,-1.3303,-1.3303,-1.3303,-1.3303,-1.2515,-1.2553,-1.2613,-1.2672,-1.2717,-1.2766,-1.2807,-1.2851,-1.2906,-1.2979,-1.3004,-1.3073,-1.3136,-1.3234,-1.3275,-1.3331,-1.3332,-1.3347,-1.3351,-1.3354,-1.3353,-1.3278,-1.3345,-1.3345,-1.3345,-1.3345,-1.3345,0,-1.2558,-1.2598,-1.2653,-1.2725,-1.2773,-1.2789,-1.2849,-1.2889,-1.2948,-1.3004,-1.3059,-1.3137,-1.3203,-1.3262,-1.3332,-1.3366,-1.3378,-1.3383,-1.3381,-1.339,-1.3349,-1.3333,-1.3372,-1.3372,-1.3372,-1.3372,-1.3372,-1.3372,-1.2585,-1.265,-1.2679,-1.2767,-1.2809,-1.2875,-1.2908,-1.2955,-1.3,-1.3085,-1.314,-1.3178,-1.3237,-1.3312,-1.3374,-1.3391,-1.3415,-1.3418,-1.3436,-1.3396,-1.3393,-1.3389,-1.3375,-1.3423,-1.3423,-1.3474,-1.3474,-1.3474]},{"header":{"parameterUnit":"m.s-1","parameterCategory":1,"la1":30.2991,"la2":30.254,"lo1":-89.0895,"lo2":-89.0444,"dy":0.0017,"dx":0.0017,"nx":28,"ny":28,"refTime":"2023-10-05T03:00:00:Z","depth":0,"parameterNumber":3,"parameterNumberName":"V-component_of_WINDS"},"data":[0,0,0,0,0,0,0,0,0,0,0,0,0,0,0,0,0,0,0,0,0,0,0,0,0,0,0,0,0,0,0,0,0,0,0,0,0,0,0,0,0,0,0,0,0,0,0,0,0,0,0,0,0,0,0,0,0,0,-2.0596,-2.0596,0,-2.0581,-2.0581,-2.0581,-2.0518,-2.0517,-2.0515,-2.0514,-2.0498,-2.0499,-2.0499,0,0,0,0,0,0,0,0,0,0,0,0,0,-2.0571,-2.0571,-2.0596,-2.0596,-2.0595,-2.0581,-2.0581,-2.058,-2.0518,-2.0517,-2.0515,-2.0513,-2.0497,-2.0498,-2.05,0,0,0,0,0,0,0,0,0,0,0,0,0,-2.0571,-2.0572,-2.0596,-2.0563,-2.056,-2.0581,-2.0581,-2.058,-2.0519,-2.0517,-2.0515,-2.0513,-2.0497,-2.0498,-2.05,-2.0551,0,0,-2.0504,-2.0504,0,0,0,0,0,0,0,0,-2.0571,-2.0572,-2.0568,-2.0565,-2.0562,-2.0549,-2.0566,-2.0571,-2.0519,-2.0534,-2.0514,-2.0511,-2.0517,-2.0516,-2.0518,-2.0551,-2.055,-2.0504,-2.0505,-2.0505,-2.0506,0,0,0,0,0,0,0,-2.0571,-2.0573,-2.059,-2.0568,-2.0564,-2.0549,-2.0546,-2.0566,-2.0538,-2.0533,-2.0528,-2.0527,-2.0514,-2.0517,-2.0517,-2.055,-2.0504,-2.0505,-2.0506,-2.0507,-2.0626,-2.0629,0,0,0,0,0,0,-2.0576,-2.0573,-2.059,-2.0589,-2.0561,-2.0551,-2.0548,-2.0555,-2.0537,-2.0532,-2.0529,-2.0525,-2.0516,-2.0516,-2.0516,-2.0578,-2.0505,-2.0507,-2.0507,-2.0624,-2.0627,-2.0629,0,0,0,0,0,0,-2.0576,-2.0578,-2.0591,-2.058,-2.058,-2.0554,-2.0562,-2.0556,-2.0559,-2.0535,-2.0529,-2.0537,-2.0514,-2.0514,-2.0544,-2.0576,-2.0507,-2.0509,-2.0621,-2.0625,-2.0628,-2.07,0,0,0,0,0,0,-2.0575,-2.0578,-2.0598,-2.0581,-2.0581,-2.0619,-2.0564,-2.0557,-2.0561,-2.0555,-2.0541,-2.0536,-2.0512,-2.0542,-2.0545,-2.0577,-2.051,-2.0618,-2.0623,-2.0627,-2.0695,-2.0706,-2.0715,0,0,0,0,0,-2.0575,-2.0618,-2.0599,-2.0601,-2.0605,-2.0621,-2.0621,-2.0593,-2.0564,-2.0584,-2.0568,-2.0537,-2.0572,-2.0546,-2.0549,-2.0581,-2.0616,-2.0622,-2.0627,-2.069,-2.0704,-2.0715,0,0,0,0,0,0,-2.0638,-2.0615,-2.0594,-2.0633,-2.063,-2.061,-2.0634,-2.0608,-2.0612,-2.0606,-2.057,-2.0568,-2.0603,-2.0594,-2.0566,-2.0632,-2.0589,-2.0595,-2.0636,-2.0649,-2.0659,-2.0661,-2.0511,0,0,0,0,0,-2.0657,-2.0672,-2.065,-2.0687,-2.0686,-2.0661,-2.0666,-2.0645,-2.064,-2.0638,-2.0625,-2.0621,-2.0632,-2.0639,-2.0647,-2.0693,-2.069,-2.0717,-2.0727,-2.0735,-2.0742,-2.0768,-2.078,-2.0647,-2.0647,-2.0647,0,0,-2.0695,-2.0685,-2.0696,-2.07,-2.0694,-2.0712,-2.066,-2.0679,-2.0692,-2.0641,-2.0669,-2.0659,-2.0652,-2.0691,-2.0707,-2.0685,-2.0778,-2.0742,-2.0749,-2.0751,-2.0775,-2.0787,-2.0799,-2.0651,-2.065,-2.0649,0,0,-2.0775,-2.0767,-2.0798,-2.0795,-2.0788,-2.0771,-2.0779,-2.0764,-2.0756,-2.0783,-2.0746,-2.076,-2.0778,-2.0776,-2.0777,-2.0858,-2.0829,-2.0861,-2.0915,-2.0941,-2.0951,-2.096,-2.0992,-2.1003,-2.0867,-2.0867,-2.0867,0,-2.0824,-2.0848,-2.0817,-2.0841,-2.0844,-2.0799,-2.0831,-2.0829,-2.0825,-2.0829,-2.0804,-2.0827,-2.0819,-2.0858,-2.0878,-2.0879,-2.0888,-2.0863,-2.0952,-2.0961,-2.0969,-2.0999,-2.101,-2.0871,-2.0871,-2.087,-2.087,0,-2.091,-2.0928,-2.0953,-2.0953,-2.0959,-2.0986,-2.096,-2.0969,-2.0948,-2.0933,-2.0963,-2.0952,-2.0958,-2.0965,-2.0944,-2.1002,-2.0989,-2.0958,-2.0915,-2.0987,-2.1014,-2.1025,-2.0877,-2.0876,-2.0874,-2.0873,0,0,-2.103,-2.1013,-2.1023,-2.1023,-2.1013,-2.1026,-2.1052,-2.1059,-2.1069,-2.1068,-2.109,-2.1106,-2.1079,-2.1081,-2.1058,-2.1081,-2.1149,-2.1048,-2.1047,-2.107,-2.1215,-2.124,-2.1253,-2.1129,-2.1131,-2.1133,-2.1217,0,-2.1108,-2.1152,-2.1126,-2.1173,-2.1191,-2.1149,-2.1172,-2.1168,-2.1156,-2.1168,-2.1154,-2.1168,-2.1129,-2.113,-2.115,-2.1136,-2.1178,-2.113,-2.1151,-2.1152,-2.1157,-2.1267,-2.1293,-2.1373,-2.1227,-2.1228,-2.123,0,-2.1205,-2.121,-2.1261,-2.125,-2.1256,-2.1277,-2.1283,-2.1294,-2.129,-2.1279,-2.1282,-2.1255,-2.128,-2.1236,-2.1271,-2.1239,-2.1245,-2.124,-2.1242,-2.1245,-2.1197,-2.1276,-2.1397,-2.141,-2.1246,-2.1244,-2.1243,0,-2.1291,-2.131,-2.1344,-2.1344,-2.1332,-2.1348,-2.1343,-2.1337,-2.1343,-2.1348,-2.1352,-2.1359,-2.1363,-2.1369,-2.1345,-2.1315,-2.1384,-2.1337,-2.1378,-2.1379,-2.1396,-2.1396,-2.1523,-2.1396,-2.1396,-2.1396,-2.1395,0,-2.1383,-2.1416,-2.1383,-2.1403,-2.144,-2.1409,-2.1446,-2.1436,-2.1431,-2.145,-2.1413,-2.1431,-2.1397,-2.1412,-2.1392,-2.1426,-2.1427,-2.142,-2.1415,-2.1425,-2.1427,-2.1431,-2.1426,-2.1399,-2.1398,-2.1398,-2.1397,0,-2.1486,-2.1464,-2.1499,-2.1484,-2.1482,-2.1509,-2.1497,-2.1516,-2.1501,-2.1525,-2.1529,-2.1506,-2.1522,-2.1498,-2.151,-2.1497,-2.1545,-2.1529,-2.1547,-2.1544,-2.1586,-2.1584,-2.1723,-2.1741,-2.16,-2.1601,-2.1602,0,-2.1547,-2.1572,-2.1561,-2.1572,-2.157,-2.1587,-2.1594,-2.1564,-2.1574,-2.1572,-2.1591,-2.1604,-2.1613,-2.1641,-2.1625,-2.1635,-2.1622,-2.167,-2.1623,-2.1633,-2.1626,-2.1626,-2.163,-2.168,-2.1682,-2.1683,-2.1684,0,-2.166,-2.1648,-2.166,-2.167,-2.168,-2.1686,-2.1688,-2.1699,-2.1668,-2.168,-2.1697,-2.1704,-2.1718,-2.1732,-2.1738,-2.1733,-2.1705,-2.1699,-2.1709,-2.1721,-2.1732,-2.173,-2.1576,-2.1697,-2.1695,-2.1694,-2.1694,-2.1693,-2.1745,-2.1767,-2.1764,-2.1779,-2.1778,-2.1782,-2.1801,-2.1789,-2.1802,-2.1812,-2.1793,-2.1815,-2.1811,-2.1817,-2.1816,-2.1832,-2.1811,-2.1826,-2.183,-2.1835,-2.1843,-2.1727,-2.1833,-2.1833,-2.1832,-2.1832,-2.1832,0,-2.1859,-2.1855,-2.1869,-2.1876,-2.1888,-2.186,-2.1862,-2.1875,-2.1895,-2.1894,-2.1904,-2.1925,-2.1938,-2.1924,-2.1935,-2.1952,-2.1939,-2.1956,-2.1956,-2.1956,-2.1859,-2.1851,-2.1966,-2.1966,-2.1966,-2.1966,-2.1966,-2.1966,-2.1919,-2.1955,-2.1944,-2.1979,-2.1974,-2.1997,-2.2001,-2.2005,-2.2004,-2.2029,-2.2041,-2.2031,-2.2026,-2.2037,-2.2049,-2.2044,-2.2051,-2.2073,-2.2065,-2.1975,-2.1962,-2.195,-2.1942,-2.2074,-2.2074,-2.216,-2.2161,-2.2161]}]]